Regional Weather Roundup
Issued by NWS Wakefield, VA

Current Version | Previous Version | Text Only | Print | Product List | Glossary Off
Versions: 1 2 3 4 5 6 7 8 9 10 11 12 13 14 15 16 17 18 19 20 21 22 23 24 25 26 27 28 29 30 31 32 33 34 35 36 37 38 39 40 41 42 43 44 45 46 47 48 49 50

062
ASUS41 KAKQ 250715
RWRAKQ

REGIONAL WEATHER ROUNDUP
NATIONAL WEATHER SERVICE WAKEFIELD VA
300 AM EDT WED APR 25 2018

Note: "fair" indicates few or no clouds below 12,000 feet with no
significant weather and/or obstructions to visibility. * = Denotes
station may not report precipitation (e.g., rain,snow,etc.),
thunder or fog.

VAZ042-051-052>054-056-250800-
NORTHERN VIRGINIA

CITY           SKY/WX    TMP DP  RH WIND       PRES   REMARKS
WASH NATIONAL  LGT RAIN  56  54  93 N8        29.85F
DULLES         LGT RAIN  53  53 100 N7        29.86F
FORT BELVOIR   LGT RAIN  55  54  96 CALM      29.84F
QUANTICO       LGT RAIN  56  56 100 N7        29.84F FOG
FREDERICKSBRG* DRIZZLE   55  55 100 N5        29.82F
STAFFORD*      RAIN      55  55 100 N7        29.87F
WARRENTON      RAIN      55  51  88 N7        29.84F
CULPEPER*      CLOUDY    54  53  94 N6        29.86F
MANASSAS*      LGT RAIN N/A N/A N/A N9        29.85F
LEESBURG*      LGT RAIN  50  50 100 NE8       29.88F
WINCHESTER     DRIZZLE   50  48  93 N6        29.89F
FRONT ROYAL*   CLOUDY    50  50 100 N5        29.87F
LURAY*         CLOUDY    52  50  93 N6        29.86F
$$

VAZ048-049-060>072-079>083-250800-
CENTRAL AND SOUTH CENTRAL VIRGINIA

CITY           SKY/WX    TMP DP  RH WIND       PRES   REMARKS
RICHMOND       LGT RAIN  59  59 100 E6        29.78F FOG
CHESTERFIELD*  CLOUDY    60  60 100 E6        29.78F FOG
PETERSBURG*    DRIZZLE   61  59  94 E3        29.79F
HANOVER        LGT RAIN  59  59 100 CALM      29.80F FOG
TAPPAHANNOCK*  CLOUDY    60  60  99 E7        29.81F FOG
QUINTON*       CLOUDY    59  59 100 MISG      29.79F FOG
CHARLOTTSVILLE CLOUDY    54  52  93 N10       29.82F
GORDONSVILLE*  CLOUDY    53  53 100 N5        29.83F
ORANGE*        RAIN      52  52 100 CALM      29.83F
LOUISA*        LGT RAIN  52  52  98 N10       29.86F
BUMPASS*       NOT AVBL
FARMVILLE*     CLOUDY   N/A N/A N/A N8        29.78F FOG
CREWE*         CLOUDY    58  58 100 N3        29.77F
FORT PICKETT*  CLOUDY    60  60 100 CALM      29.77F
CHASE CITY*    CLOUDY    61  61 100 CALM      29.76F
CLARKSVILLE*   CLOUDY    61  61 100 SE3       29.75F
SOUTH HILL*    CLOUDY    60  60 100 CALM      29.81F
LAWRENCEVILLE* CLOUDY    62  61  97 CALM      29.75F
EMPORIA*       CLOUDY    61  61 100 CALM      29.77F
$$

VAZ088>098-250800-
SOUTHEAST VIRGINIA

CITY           SKY/WX    TMP DP  RH WIND       PRES   REMARKS
NORFOLK        CLOUDY    58  56  93 NE6       29.78F FOG
VIRGINIA BEACH FOG       55  55 100 NE5       29.79F VSB 1/2
NORFOLK NAVAL  FOG       56  55  97 E6        29.80F VSB 1/2
WEST POINT*    CLOUDY    58  57  96 E7        29.81F
SALUDA*        CLOUDY    56  56 100 E7        29.81F
NEWPORT NEWS   CLOUDY    58  57  97 E7        29.79F FOG
LANGLEY AFB    NOT AVBL
FORT EUSTIS    CLOUDY    59  58  96 E7        29.76F
WILLIAMSBURG*  CLOUDY    59  59 100 CALM      29.80F
HR EXEC AP*    CLOUDY    59  58  96 E6        29.79F
FRANKLIN*      CLOUDY    61  61  98 SE5       29.78F
US460-WAKEFLD  CLOUDY    62  62 100 E3        29.77F FOG
$$

VAZ020-022-025-037-045-250800-
WEST CENTRAL AND SOUTHWEST VIRGINIA

CITY           SKY/WX    TMP DP  RH WIND       PRES   REMARKS
STAUNTON*      CLOUDY    50  49  97 N8        29.87F
WAYNESBORO*    CLOUDY    50  50  99 N6        29.85F
HOT SPRINGS VA RAIN      38  38 100 E9        29.84F VSB 1/4
LYNCHBURG      RAIN      52  51  97 NE14      29.79F FOG
DANVILLE       CLOUDY    57  57 100 NE7       29.75F
SOUTH BOSTON*  CLOUDY    58  56  95 N3        29.75F
MARTINSVILLE   HVY RAIN  53  52  95 N3        29.80F
ROANOKE        LGT RAIN  54  51  90 N8        29.82F
BLACKSBURG     CLOUDY    51  51  99 NE5       29.83F
DUBLIN*        DRIZZLE   53  53  99 NE5       29.82F
MARION*        DRIZZLE   53  52  99 CALM      29.84F
HILLSVILLE*    FOG       51  49  96 N8        29.79F VSB 1/4
RICHLANDS*     LGT RAIN  51  29  41 NW3       29.84S VSB 1/4
WISE*          CLOUDY    52  52 100 NW9       29.86F
ABINGDON*      RAIN      55  55 100 NW3       29.83F
$$

MDZ021>025-VAZ099-100-250800-
SOUTHERN MARYLAND AND THE DELMARVA PENINSULA

CITY           SKY/WX    TMP DP  RH WIND       PRES   REMARKS
PATUXENT RIVER LGT RAIN  58  56  93 SE7       29.83F FOG
BAY BRIDGE APT LGT RAIN  57  55  94 SE5       29.86F FOG
LEONARDTOWN    CLOUDY    55  55 100 E6        29.85F
DOVER          NOT AVBL
GEORGETOWN     CLOUDY    57  56  96 E8        29.89F FOG
EASTON         CLOUDY    58  57  94 SE7       29.90F FOG
CAMBRIDGE      CLOUDY    59  59 100 SE9       29.86F
SALISBURY      CLOUDY    58  58 100 SE13      29.86F
TANGIER        CLOUDY    57  57 100 E6        29.82F
OCEAN CITY     CLOUDY    53  53 100 E10       29.87F FOG
WALLOPS ISLAND CLOUDY    57  57 100 E9        29.85F
ACCOMACK*      CLOUDY    58  57  97 E6        29.82F FOG
$$

NCZ012>017-030>032-250800-
NORTH CENTRAL AND EASTERN NORTH CAROLINA

CITY           SKY/WX    TMP DP  RH WIND       PRES   REMARKS
ROANOKE RAPIDS FOG       61  61 100 CALM      29.74F VSB 1
RALEIGH        MOCLDY    60  60 100 SE5       29.74F
ELIZABETH CITY MOCLDY    62  62 100 SE6       29.78F
AHOSKIE*       MOCLDY    61  61 100 CALM      29.76F
EDENTON*       NOT AVBL
CURRITUCK*     NOT AVBL
KILL DEVIL HLS MOCLDY    58  58 100 CALM      29.78F FOG
MANTEO         FAIR      60  59  98 SE5       29.79F
CAPE HATTERAS  MOCLDY    68  65  90 SW6       29.79F FOG
TARBORO*       NOT AVBL
GOLDSBORO      CLOUDY    63  61  94 CALM      29.73F
WASHINGTON     MOCLDY    62  61  97 CALM      29.77S
GREENVILLE     MOCLDY    63  61  94 S6        29.79S
NEW BERN       MOCLDY    60  60 100 S6        29.78S
WILMINGTON     FAIR      62  59  90 SW6       29.77F
$$

VAZ048-250800-
ELSEWHERE

CITY           SKY/WX    TMP DP  RH WIND       PRES   REMARKS
HARRISBURG PA  LGT RAIN  52  50  93 E5        29.91F FOG
BALTIMORE      LGT RAIN  55  55 100 NE9       29.86F FOG
ANNAPOLIS      LGT RAIN  58  58 100 E7        29.85F FOG
ANDREWS AFB    RAIN      55  55  99 N3        29.84F FOG
PHILADELPHIA   LGT RAIN  54  53  97 E13       29.95F FOG
HENDERSON NC   MOCLDY    58  57  97 SE3       29.74F FOG
GREENSBORO     CLOUDY    57  57 100 N5        29.74F
ROCKY MOUNT    CLOUDY    61  61 100 S5        29.74F FOG
$$

VAZ100-250800-
MARINE

STATION/POSITION TIME  TEMP    WIND        PRES    WAVE   SWELL
                       AIR SEA DIR/SP/G            HT/PER HT/PER
                 (UTC) (F)     (DEG/KT/KT) (MB)    (FT/S) (FT/S)
BRANDYWINE LGT   0642   54     130/ 25/ 27 1012.8F
CAPE MAY NJ      0642   53 51  110/ 16/ 22 1012.4F
LEWES DE         0642   53 51  120/ 12/ 20 1012.2F
15NM E FENWICK I 0650   49 47   80/ 16/ 17 1012.1F   7/ 9   5/ 9
OCEAN-CITY-INLET 0642   53 51  110/  9/ 13 1012.0F
WACHAPREAGUE VA  0642   55 56   70/  6/  7 1010.1F
THOMAS POINT MD  0700   56 53   90/  8/  9 1011.9F
GOOSES REEF MD   0700   56     140/  2/  2 1011.2
COVE POINT MD    0642   56     180/  8/ 12 1011.2F
SOLOMONS ISLAND  0642   56 53  140/  6/  9 1010.1F
BISHOPS HEAD MD  0642   58 56  110/  9/ 11 1011.0F
PINEY POINT MD   0636          150/ 11/ 12   N/A
POTOMAC MD       0700   55 53  110/ 10/ 12 1011.1    1/ 3
CAMBRIDGE MD     0642   59 56              1011.9F
LEWISETTA VA     0642   56 56  110/  9/ 11 1010.0F
RAPPAHANNOCK LGT 0636          100/  9/ 13 1010.5F
YORK RVR RNG VA  0636   56     110/ 11/ 11 1009.8F
YORKTOWN VA      0636   56 56  100/  8/  9 1008.9F
DOMINION TERM VA 0636   60      20/  1/  3 1009.1F
KIPTOPEKE VA     0636      55   90/  6/  9   N/A
CAPE HENRY VA    0636   54      70/  8/  9   N/A
WILLOUBY STN VA  0636   56      70/  8/  9 1009.1F
S CRANEY ISL VA  0636   59     100/  4/  6 1008.7F
CAPE HENRY BUOY  0700      51                N/A     7/11   3/11
64NM E OF VA BCH 0650   56 50  200/ 10/ 14 1009.8R  14/10  13/10
DUCK PIER NC     0636   58 51  110/ 13/ 15 1008.0F
44100 DUCK FRF   0645      52                N/A    10/10   5/11
44056 DUCK FRF   0700      51                N/A     8/10   3/11
OREGON INLET NC  0636   56 54   90/  3/  5 1008.6F
HATTERAS NC      0636   67 62  230/  7/ 10 1008.6F
DIAMOND SHLS NC  0700   70 70  210/ 16/ 21 1008.9
CAPE LOOKOUT NC  0700          190/  4/  4 1008.9F
$$




USA.gov is the U.S. government's official web portal to all federal, state and local government web resources and services.